Tracking 35275 objects as of 8-Sep-2026
HD Live streaming from Space Station
objects crossing your sky now

COSMOS 1155


COSMOS 1155 is no longer on orbit


NORAD ID: 11685
Int'l Code: 1980-009A
Launch date: February 7, 1980
Source: Commonwealth of Independent States (former USSR) (CIS)
Launch site: PLESETSK MISSILE AND SPACE COMPLEX (PKMTR)
Decay date: 1980-02-21
Your satellite tracking list
Your tracking list is empty




NASA's NSSDC Master Catalog

Two Line Element Set (TLE):
1 11685U 80009  A 80052.00816135  .00022311 +00000-0 +11936-3 0  9999
2 11685 072.8638 273.9914 0065424 106.6916 254.0476 15.77028318002127
Source of the keplerian elements: AFSPC